sat.trackr.live / text

‹ back to catalog

STARLINK-33576

NORAD 62775 · 2025-015T

PAYLOAD ACTIVE UNKNOWN

§ Identity

Operator
Country
US
Launch date
2025-01-21
Launch site
AFWTR
Launch vehicle
Mass (kg)
RCS (m²)

Purposes: comms

External: N2YO · Heavens-Above · Gunter

§ Orbital elements

Epoch: 2026-05-25T04:45:08.457120Z

Period
93.85 min
Inclination
53.1595°
Eccentricity
0.0001231
Mean motion
15.34397229 rev/d
Perigee alt
461.9 km
Apogee alt
463.6 km
Semi-major
6,840.8 km
B*
8.7493e-4
RAAN
326.4638°
Arg perigee
65.0333°
Mean anomaly
295.0798°
Rev number
7,614

§ Raw data

STARLINK-335761 62775U 25015T   26145.19801455  .00029297  00000+0  87493-3 0  99932 62775  53.1595 326.4638 0001231  65.0333 295.0798 15.34397229 76149

JSON: /api/v1/satellites/62775 · /tle

For live sub-satellite position, see the globe view (requires WebGL).

§ Visibility from observer

Set your observer location to see the next 7 days of passes ≥ 10°. The values pass through the URL so the page stays shareable.

No JS? Fill the form by hand. The geolocation button needs JavaScript.